Location: Rocktram
(38.2574°N, 122.2805°W)
Time: 01:45:35
(UTC+00:00)

Cosmos 2237 Rocket - Pass Details

Date: 30 March 2020
Orbit: 834 x 851 km, 71.0° (Epoch: 26 May)

Event Time Altitude Azimuth Distance (km) Brightness Sun altitude
Rises 03:39:44 0° 230° (SW) 3,368 5.8 -14.2°
Reaches altitude 10° 03:42:27 10° 241° (WSW) 2,438 5.2 -14.7°
Maximum altitude 03:47:18 30° 301° (WNW) 1,462 4.2 -15.6°
Drops below altitude 10° 03:52:12 10° 2° (N) 2,454 4.8 -16.5°
Sets 03:54:58 0° 13° (NNE) 3,394 5.4 -17.0°
